Date String (YYYY-MM-DD hh:mm:ss) UTC,Instrument flags,absolute air pressure of the measurement (hPa),sample flow rate (lpm),inlet stack bypass flow (lpm),air temperature of the measurement (°C),ambient temperature measured by the external sensor (°C),aerosol sample conditioner tube jacket temperature (°C),OPC LED temperature (°C),internal box temperature (°C),relative humidity of the measurement (%),span deviation,mass concentration of particles derived from Lorenz-Mie calculation of OPC scattering (μg/m³),mass concentration of particles derived from Lorenz-Mie calculation of OPC scattering (μg/m³),mass concentration of particles derived from Lorenz-Mie calculation of OPC scattering (μg/m³)
DateTimeUTC,F1_M11,P_M11,Q1_M11,Q2_M11,T1_M11,T2_M11,T3_M11,T4_M11,T5_M11,U1_M11,ZSPAN_M11,X0_M11,X2_M11,X1_M11
2023-06-15 08:00:00,SystemResetWarning,0825.6,5.00,000.00,030.3,028.7,000.0,038.9,031.8,17.5,0000.0,0002.35,0000.31,0000.09
2023-06-15 08:01:00,SystemResetWarning,0825.5,4.99,000.00,030.3,028.7,000.0,038.9,031.9,17.2,0000.0,0002.68,0000.35,0000.09
2023-06-15 08:02:00,SystemResetWarning,0825.5,5.00,000.00,030.4,028.7,000.0,038.9,031.9,17.2,0000.0,0002.66,0000.35,0000.09
2023-06-15 08:03:00,SystemResetWarning,0825.6,5.00,000.00,030.4,028.7,000.0,038.9,031.9,17.1,0000.0,0002.44,0000.33,0000.10
2023-06-15 08:04:00,SystemResetWarning,0825.5,5.01,000.00,030.4,028.8,000.0,039.0,031.9,17.3,0000.0,0002.33,0000.32,0000.10
2023-06-15 08:05:00,SystemResetWarning,0825.5,5.01,000.00,030.4,028.8,000.0,039.0,031.9,17.2,0000.0,0002.31,0000.31,0000.10
2023-06-15 08:06:00,SystemResetWarning,0825.4,5.00,000.00,030.4,028.8,000.0,039.0,031.9,17.0,0000.0,0002.43,0000.31,0000.10
2023-06-15 08:07:00,SystemResetWarning,0825.4,4.99,000.00,030.4,028.8,000.0,039.0,031.9,17.0,0000.0,0002.49,0000.29,0000.10
2023-06-15 08:08:00,SystemResetWarning,0825.4,4.99,000.00,030.4,028.8,000.0,039.0,031.9,17.0,0000.0,0002.50,0000.28,0000.10
2023-06-15 08:09:00,SystemResetWarning,0825.4,5.00,000.00,030.4,028.8,000.0,039.0,031.9,17.4,0000.0,0002.73,0000.29,0000.10
2023-06-15 08:10:00,SystemResetWarning,0825.4,4.99,000.00,030.4,028.8,000.0,039.0,031.9,17.4,0000.0,0002.84,0000.32,0000.10
2023-06-15 08:11:00,SystemResetWarning,0825.4,4.99,000.00,030.4,027.3,000.0,038.9,031.9,17.6,0000.0,0001.35,0000.33,0000.11
2023-06-15 08:12:00,SystemResetWarning,0825.4,5.01,000.00,030.4,025.2,000.0,038.9,031.7,17.6,0000.0,0001.43,0000.31,0000.11
2023-06-15 08:13:00,SystemResetWarning,0825.4,5.00,000.00,030.3,025.0,000.0,038.8,031.5,17.5,0000.0,0001.49,0000.30,0000.11
2023-06-15 08:14:00,SystemResetWarning,0825.4,5.02,000.00,030.2,025.3,000.0,038.8,031.3,17.5,0000.0,0001.49,0000.31,0000.12
2023-06-15 08:15:00,SystemResetWarning,0825.4,5.00,000.00,030.1,025.7,000.0,038.8,031.2,17.6,0000.0,0001.66,0000.32,0000.13
2023-06-15 08:16:00,SystemResetWarning,0825.3,5.00,000.00,030.0,026.2,000.0,038.8,031.2,17.7,0000.0,0002.01,0000.34,0000.14
2023-06-15 08:17:00,SystemResetWarning,0825.4,4.98,000.00,030.0,026.6,000.0,038.7,031.2,17.7,0000.0,0001.89,0000.34,0000.15
2023-06-15 08:18:00,SystemResetWarning,0825.4,4.99,000.00,030.0,026.9,000.0,038.7,031.3,17.8,0000.0,0001.77,0000.34,0000.16
2023-06-15 08:19:00,SystemResetWarning,0825.4,5.02,000.00,030.0,027.2,000.0,038.7,031.3,18.0,0000.0,0001.76,0000.35,0000.17
2023-06-15 08:20:00,SystemResetWarning,0825.4,4.99,000.00,030.0,027.4,000.0,038.7,031.3,18.6,0000.0,0001.60,0000.37,0000.20
2023-06-15 08:21:00,SystemResetWarning,0825.5,4.99,000.00,030.0,027.6,000.0,038.7,031.4,20.1,0000.0,0001.52,0000.39,0000.25
2023-06-15 08:22:00,SystemResetWarning,0825.5,5.00,000.00,030.0,027.8,000.0,038.7,031.4,20.6,0000.0,0001.90,0000.49,0000.30
2023-06-15 08:23:00,SystemResetWarning,0825.5,5.00,000.00,030.0,027.9,000.0,038.6,031.4,21.5,0000.0,0002.67,0000.60,0000.38
2023-06-15 08:24:00,SystemResetWarning,0825.5,5.00,000.00,030.0,028.0,000.0,038.6,031.4,22.2,0000.0,0003.90,0000.74,0000.47
2023-06-15 08:25:00,SystemResetWarning,0825.5,5.00,000.00,030.0,028.1,000.0,038.6,031.4,22.2,0000.0,0004.49,0000.91,0000.59
2023-06-15 08:26:00,SystemResetWarning,0825.5,5.00,000.00,030.0,028.1,000.0,038.6,031.5,22.2,0000.0,0004.71,0001.06,0000.70
2023-06-15 08:27:00,SystemResetWarning,0825.4,5.01,000.00,030.0,028.2,000.0,038.6,031.5,21.6,0000.0,0005.37,0001.26,0000.81
2023-06-15 08:28:00,SystemResetWarning,0825.4,5.00,000.00,030.0,028.3,000.0,038.6,031.5,21.3,0000.0,0006.45,0001.45,0000.90
2023-06-15 08:29:00,SystemResetWarning,0825.4,5.00,000.00,030.0,028.3,000.0,038.6,031.5,19.7,0000.0,0008.01,0001.58,0000.97
2023-06-15 08:30:00,SystemResetWarning,0825.4,4.99,000.00,030.0,028.4,000.0,038.6,031.5,19.3,0000.0,0008.19,0001.62,0001.00
2023-06-15 08:31:00,SystemResetWarning,0825.4,4.99,000.00,030.1,028.4,000.0,038.6,031.5,20.4,0000.0,0008.33,0001.69,0001.07
2023-06-15 08:32:00,SystemResetWarning,0825.5,5.00,000.00,030.1,028.4,000.0,038.6,031.5,19.9,0000.0,0008.45,0001.74,0001.09
2023-06-15 08:33:00,SystemResetWarning,0825.5,5.00,000.00,030.1,028.5,000.0,038.6,031.6,21.3,0000.0,0008.50,0001.81,0001.15
2023-06-15 08:34:00,SystemResetWarning,0825.6,5.00,000.00,030.1,028.5,000.0,038.7,031.6,20.4,0000.0,0008.22,0001.80,0001.16
2023-06-15 08:35:00,SystemResetWarning,0825.6,5.01,000.00,030.1,028.5,000.0,038.7,031.6,22.0,0000.0,0008.06,0001.78,0001.16
2023-06-15 08:36:00,SystemResetWarning,0825.7,5.00,000.00,030.1,028.5,000.0,038.7,031.6,22.6,0000.0,0007.77,0001.78,0001.16
2023-06-15 08:37:00,SystemResetWarning,0825.6,5.00,000.00,030.1,028.5,000.0,038.7,031.6,22.9,0000.0,0008.67,0001.83,0001.17
2023-06-15 08:38:00,SystemResetWarning,0825.7,5.00,000.00,030.1,028.5,000.0,038.7,031.6,23.8,0000.0,0008.62,0001.83,0001.18
2023-06-15 08:39:00,SystemResetWarning,0825.6,5.01,000.00,030.1,028.5,000.0,038.7,031.6,24.6,0000.0,0008.27,0001.88,0001.22
2023-06-15 08:40:00,SystemResetWarning,0825.6,5.00,000.00,030.1,028.4,000.0,038.7,031.5,25.3,0000.0,0007.35,0001.98,0001.31
2023-06-15 08:41:00,SystemResetWarning,0825.6,5.00,000.00,030.1,028.4,000.0,038.7,031.5,26.1,0000.0,0007.42,0002.20,0001.43
2023-06-15 08:42:00,SystemResetWarning,0825.6,5.00,000.00,030.1,028.4,000.0,038.7,031.5,26.4,0000.0,0007.53,0002.35,0001.53
2023-06-15 08:43:00,SystemResetWarning,0825.6,5.00,000.00,030.0,028.4,000.0,038.7,031.4,26.5,0000.0,0007.51,0002.45,0001.62
2023-06-15 08:44:00,SystemResetWarning,0825.6,5.00,000.00,030.0,028.3,000.0,038.7,031.4,26.5,0000.0,0007.56,0002.52,0001.68
2023-06-15 08:45:00,SystemResetWarning,0825.6,4.99,000.00,030.0,028.3,000.0,038.7,031.4,26.5,0000.0,0007.46,0002.65,0001.76
2023-06-15 08:46:00,SystemResetWarning,0825.5,5.00,000.00,030.0,028.3,000.0,038.7,031.3,26.6,0000.0,0007.11,0002.75,0001.84
2023-06-15 08:47:00,SystemResetWarning,0825.5,5.00,000.00,029.9,028.2,000.0,038.6,031.3,26.3,0000.0,0007.02,0002.76,0001.90
2023-06-15 08:48:00,SystemResetWarning,0825.5,5.00,000.00,029.9,028.2,000.0,038.6,031.3,26.1,0000.0,0005.68,0002.77,0001.93
2023-06-15 08:49:00,SystemResetWarning,0825.4,5.00,000.00,029.9,028.1,000.0,038.6,031.3,25.9,0000.0,0004.88,0002.75,0001.95
2023-06-15 08:50:00,SystemResetWarning,0825.4,5.01,000.00,029.8,028.1,000.0,038.6,031.2,25.8,0000.0,0004.64,0002.69,0001.96
2023-06-15 08:51:00,SystemResetWarning,0825.4,5.00,000.00,029.8,028.0,000.0,038.6,031.2,25.6,0000.0,0004.69,0002.66,0001.95
2023-06-15 08:52:00,SystemResetWarning,0825.4,5.00,000.00,029.8,028.0,000.0,038.6,031.2,25.5,0000.0,0004.69,0002.62,0001.94
2023-06-15 08:53:00,SystemResetWarning,0825.3,5.00,000.00,029.8,028.0,000.0,038.6,031.2,24.3,0000.0,0004.62,0002.54,0001.89
2023-06-15 08:54:00,SystemResetWarning,0825.3,5.00,000.00,029.8,028.0,000.0,038.6,031.2,24.2,0000.0,0004.77,0002.57,0001.85
2023-06-15 08:55:00,SystemResetWarning,0825.4,5.00,000.00,029.8,028.0,000.0,038.5,031.2,24.6,0000.0,0005.00,0002.54,0001.81
2023-06-15 08:56:00,SystemResetWarning,0825.4,5.00,000.00,029.8,028.0,000.0,038.5,031.2,24.6,0000.0,0005.03,0002.46,0001.77
2023-06-15 08:57:00,SystemResetWarning,0825.4,5.00,000.00,029.8,028.1,000.0,038.5,031.2,24.8,0000.0,0004.91,0002.43,0001.73
2023-06-15 08:58:00,SystemResetWarning,0825.4,5.00,000.00,029.8,028.1,000.0,038.5,031.2,24.7,0000.0,0004.82,0002.40,0001.69
2023-06-15 08:59:00,SystemResetWarning,0825.4,5.00,000.00,029.8,028.1,000.0,038.5,031.2,24.8,0000.0,0004.88,0002.39,0001.67
